Location: ????????
(55.7667°N, 37.4833°E)
Time: 11:58:30
(UTC+00:00)

Cosmos 2218 Rocket - Pass Details

Date: 19 May 2025
Orbit: 955 x 1005 km, 82.9° (Epoch: 13 June)

Event Time Altitude Azimuth Distance (km) Brightness Sun altitude
Rises 18:45:26 0° 348° (NNW) 3,744 8.4 -7.0°
Reaches altitude 10° 18:47:59 10° 349° (N) 2,786 7.6 -7.2°
Maximum altitude 18:54:25 82° 78° (ENE) 1,011 4.1 -7.7°
Drops below altitude 10° 19:00:43 10° 166° (SSE) 2,738 5.8 -8.2°
Enters shadow 19:01:15 - 167° (SSE) 2,933 5.9 -8.3°
